TimeCDT,TemperatureF,Dew PointF,Humidity,Sea Level PressureIn,VisibilityMPH,Wind Direction,Wind SpeedMPH,Gust SpeedMPH,PrecipitationIn,Events,Conditions,WindDirDegrees,DateUTC
12:53 AM,87.1,60.1,40,29.84,10.0,ESE,9.2,-,N/A,,Clear,110,2013-07-12 05:53:00
1:53 AM,86.0,64.0,48,29.85,10.0,ESE,12.7,19.6,N/A,,Clear,120,2013-07-12 06:53:00
2:53 AM,84.0,66.0,55,29.84,10.0,ESE,10.4,-,N/A,,Clear,120,2013-07-12 07:53:00
3:53 AM,82.9,68.0,60,29.84,10.0,ESE,9.2,-,N/A,,Clear,110,2013-07-12 08:53:00
4:53 AM,81.0,69.1,67,29.85,10.0,East,5.8,-,N/A,,Clear,100,2013-07-12 09:53:00
5:53 AM,80.1,69.1,69,29.86,10.0,East,6.9,-,N/A,,Clear,90,2013-07-12 10:53:00
6:53 AM,79.0,69.1,72,29.87,10.0,East,8.1,-,N/A,,Clear,90,2013-07-12 11:53:00
7:53 AM,79.0,69.1,72,29.89,10.0,East,9.2,-,N/A,,Clear,90,2013-07-12 12:53:00
8:53 AM,82.0,69.1,65,29.89,10.0,ESE,10.4,-,N/A,,Clear,110,2013-07-12 13:53:00
9:53 AM,82.9,69.1,63,29.90,10.0,SE,10.4,-,N/A,,Clear,140,2013-07-12 14:53:00
10:53 AM,87.1,69.1,55,29.89,10.0,SE,10.4,-,N/A,,Clear,140,2013-07-12 15:53:00
11:53 AM,90.0,69.1,50,29.89,10.0,SE,8.1,-,N/A,,Clear,130,2013-07-12 16:53:00
12:53 PM,93.0,66.9,42,29.88,10.0,SSE,11.5,20.7,N/A,,Partly Cloudy,150,2013-07-12 17:53:00
1:53 PM,96.1,62.1,32,29.86,10.0,ESE,16.1,21.9,N/A,,Clear,120,2013-07-12 18:53:00
2:53 PM,98.1,61.0,29,29.84,10.0,ESE,9.2,19.6,N/A,,Clear,120,2013-07-12 19:53:00
3:53 PM,99.0,57.0,25,29.83,10.0,SE,15.0,19.6,N/A,,Clear,130,2013-07-12 20:53:00
4:53 PM,100.0,57.0,24,29.82,10.0,SE,12.7,24.2,N/A,,Clear,130,2013-07-12 21:53:00
5:53 PM,98.1,55.9,24,29.81,10.0,SE,15.0,26.5,N/A,,Clear,130,2013-07-12 22:53:00
6:53 PM,98.1,55.9,24,29.80,10.0,SE,16.1,23.0,N/A,,Clear,140,2013-07-12 23:53:00
7:53 PM,97.0,54.0,23,29.79,10.0,SE,15.0,20.7,N/A,,Clear,130,2013-07-13 00:53:00
8:53 PM,93.9,53.1,25,29.80,10.0,SE,5.8,-,N/A,,Clear,130,2013-07-13 01:53:00
9:53 PM,91.9,53.1,27,29.81,10.0,ESE,6.9,-,N/A,,Clear,120,2013-07-13 02:53:00
10:53 PM,90.0,54.0,29,29.82,10.0,East,6.9,-,N/A,,Clear,100,2013-07-13 03:53:00
11:53 PM,88.0,55.9,34,29.84,10.0,East,6.9,-,N/A,,Clear,100,2013-07-13 04:53:00